| time (UTC) | temp F | wind direction | speed knots | gust knots | rain 1hr in | rain 24hr in | rain mn in | humidity % | barometer mb |
| 20260508011832 | 57 | 290 | 7.8 | 0.0 | 0.00 | 0.00 | 0.00 | 94 | 1015.0 |
| 20260508010332 | 57 | 290 | 7.8 | 0.0 | 0.00 | 0.00 | 0.00 | 94 | 1015.0 |
| 20260508004833 | 57 | 270 | 4.3 | 0.0 | 0.00 | 0.00 | 0.00 | 100 | 1015.0 |
| 20260508003332 | 57 | 270 | 4.3 | 0.0 | 0.00 | 0.00 | 0.00 | 100 | 1015.0 |
| 20260508000334 | 57 | 260 | 4.3 | 0.0 | 0.00 | 0.00 | 0.00 | 100 | 1015.0 |
| 20260507233332 | 59 | 250 | 4.3 | 0.0 | 0.00 | 0.00 | 0.00 | 94 | 1015.0 |
| 20260507231832 | 59 | 210 | 6.1 | 0.0 | 0.00 | 0.00 | 0.00 | 94 | 1015.0 |
| 20260507230332 | 59 | 210 | 6.1 | 0.0 | 0.00 | 0.00 | 0.00 | 94 | 1015.0 |
| 20260507224832 | 57 | 190 | 4.3 | 0.0 | 0.00 | 0.00 | 0.00 | 94 | 1015.0 |
| 20260507223451 | 57 | 190 | 4.3 | 0.0 | 0.00 | 0.00 | 0.00 | 94 | 1015.0 |
| 20260507220332 | 59 | 180 | 4.3 | 0.0 | 0.00 | 0.00 | 0.00 | 88 | 1015.0 |
| 20260507214832 | 59 | 140 | 4.3 | 0.0 | 0.00 | 0.00 | 0.00 | 94 | 1015.0 |
| 20260507213334 | 59 | 140 | 4.3 | 0.0 | 0.00 | 0.00 | 0.00 | 94 | 1015.0 |
| 20260507211832 | 59 | 120 | 4.3 | 0.0 | 0.00 | 0.00 | 0.00 | 88 | 1015.0 |
| 20260507210333 | 59 | 120 | 4.3 | 0.0 | 0.00 | 0.00 | 0.00 | 88 | 1015.0 |
| 20260507204832 | 59 | 170 | 2.6 | 0.0 | 0.00 | 0.00 | 0.00 | 88 | 1015.0 |
| 20260507203333 | 59 | 170 | 2.6 | 0.0 | 0.00 | 0.00 | 0.00 | 88 | 1015.0 |
| 20260507201832 | 59 | 190 | 2.6 | 0.0 | 0.00 | 0.00 | 0.00 | 94 | 1015.0 |
| 20260507200333 | 59 | 190 | 2.6 | 0.0 | 0.00 | 0.00 | 0.00 | 94 | 1015.0 |
| 20260507194838 | 59 | 190 | 2.6 | 0.0 | 0.00 | 0.00 | 0.00 | 88 | 1015.0 |
| 20260507193332 | 59 | 190 | 2.6 | 0.0 | 0.00 | 0.00 | 0.00 | 88 | 1015.0 |
| 20260507191832 | 61 | 170 | 2.6 | 0.0 | 0.00 | 0.00 | 0.00 | 83 | 1015.0 |
| 20260507190333 | 61 | 170 | 2.6 | 0.0 | 0.00 | 0.00 | 0.00 | 83 | 1015.0 |
| 20260507184834 | 61 | 170 | 2.6 | 0.0 | 0.00 | 0.00 | 0.00 | 83 | 1014.0 |
| 20260507183332 | 61 | 170 | 2.6 | 0.0 | 0.00 | 0.00 | 0.00 | 83 | 1014.0 |
| 20260507181832 | 61 | 180 | 1.7 | 0.0 | 0.00 | 0.00 | 0.00 | 83 | 1014.0 |
| 20260507180332 | 61 | 180 | 1.7 | 0.0 | 0.00 | 0.00 | 0.00 | 83 | 1014.0 |
| 20260507174832 | 63 | 190 | 1.7 | 0.0 | 0.00 | 0.00 | 0.00 | 77 | 1014.0 |
| 20260507173333 | 63 | 190 | 1.7 | 0.0 | 0.00 | 0.00 | 0.00 | 77 | 1014.0 |
| 20260507171833 | 63 | 180 | 5.2 | 0.0 | 0.00 | 0.00 | 0.00 | 77 | 1014.0 |
| 20260507170332 | 63 | 180 | 5.2 | 0.0 | 0.00 | 0.00 | 0.00 | 77 | 1014.0 |
| 20260507164833 | 63 | 190 | 4.3 | 0.0 | 0.00 | 0.00 | 0.00 | 77 | 1014.0 |
| 20260507163333 | 63 | 190 | 4.3 | 0.0 | 0.00 | 0.00 | 0.00 | 77 | 1014.0 |
| 20260507161832 | 63 | 210 | 2.6 | 0.0 | 0.00 | 0.00 | 0.00 | 77 | 1014.0 |
| 20260507160332 | 63 | 210 | 2.6 | 0.0 | 0.00 | 0.00 | 0.00 | 77 | 1014.0 |
| 20260507154832 | 63 | 240 | 5.2 | 0.0 | 0.00 | 0.00 | 0.00 | 83 | 1014.0 |
| 20260507153332 | 63 | 240 | 5.2 | 0.0 | 0.00 | 0.00 | 0.00 | 83 | 1014.0 |
| 20260507151832 | 63 | 220 | 4.3 | 0.0 | 0.00 | 0.00 | 0.00 | 83 | 1014.0 |
| 20260507150332 | 63 | 220 | 4.3 | 0.0 | 0.00 | 0.00 | 0.00 | 83 | 1014.0 |
| 20260507144832 | 63 | 230 | 6.1 | 0.0 | 0.00 | 0.00 | 0.00 | 77 | 1014.0 |
| 20260507143334 | 63 | 230 | 6.1 | 0.0 | 0.00 | 0.00 | 0.00 | 77 | 1014.0 |
| 20260507141832 | 64 | 250 | 7.0 | 0.0 | 0.00 | 0.00 | 0.00 | 78 | 1014.0 |
| 20260507140332 | 64 | 250 | 7.0 | 0.0 | 0.00 | 0.00 | 0.00 | 78 | 1014.0 |
| 20260507134833 | 63 | 260 | 11.3 | 0.0 | 0.00 | 0.00 | 0.00 | 83 | 1015.0 |
| 20260507133332 | 63 | 260 | 11.3 | 0.0 | 0.00 | 0.00 | 0.00 | 83 | 1015.0 |
| 20260507131829 | 64 | 250 | 13.9 | 0.0 | 0.00 | 0.00 | 0.00 | 73 | 1014.0 |
| 20260507130332 | 64 | 250 | 13.9 | 0.0 | 0.00 | 0.00 | 0.00 | 73 | 1014.0 |
| 20260507124829 | 64 | 240 | 11.3 | 0.0 | 0.00 | 0.00 | 0.00 | 73 | 1015.0 |
| 20260507123410 | 64 | 240 | 11.3 | 0.0 | 0.00 | 0.00 | 0.00 | 73 | 1015.0 |
| 20260507121832 | 66 | 250 | 12.2 | 0.0 | 0.00 | 0.00 | 0.00 | 68 | 1015.0 |
| 20260507120332 | 66 | 250 | 12.2 | 0.0 | 0.00 | 0.00 | 0.00 | 68 | 1015.0 |
| 20260507114832 | 68 | 250 | 15.6 | 0.0 | 0.00 | 0.00 | 0.00 | 56 | 1014.0 |
| 20260507113351 | 70 | 230 | 7.8 | 0.0 | 0.00 | 0.00 | 0.00 | 53 | 1014.0 |
| 20260507111835 | 70 | 230 | 7.8 | 0.0 | 0.00 | 0.00 | 0.00 | 53 | 1014.0 |
| 20260507110332 | 70 | 230 | 7.8 | 0.0 | 0.00 | 0.00 | 0.00 | 53 | 1014.0 |
| 20260507104832 | 68 | 240 | 7.0 | 0.0 | 0.00 | 0.00 | 0.00 | 60 | 1014.0 |
| 20260507103332 | 68 | 240 | 7.0 | 0.0 | 0.00 | 0.00 | 0.00 | 60 | 1014.0 |
| 20260507101832 | 72 | 200 | 7.8 | 0.0 | 0.00 | 0.00 | 0.00 | 47 | 1014.0 |
| 20260507100333 | 72 | 200 | 7.8 | 0.0 | 0.00 | 0.00 | 0.00 | 47 | 1014.0 |
| 20260507094832 | 72 | 180 | 8.7 | 0.0 | 0.00 | 0.00 | 0.00 | 47 | 1014.0 |
| 20260507093333 | 72 | 180 | 8.7 | 0.0 | 0.00 | 0.00 | 0.00 | 47 | 1014.0 |
| 20260507091834 | 70 | 180 | 9.6 | 0.0 | 0.00 | 0.00 | 0.00 | 50 | 1014.0 |
| 20260507090332 | 70 | 180 | 9.6 | 0.0 | 0.00 | 0.00 | 0.00 | 50 | 1014.0 |
| 20260507084832 | 70 | 180 | 8.7 | 0.0 | 0.00 | 0.00 | 0.00 | 50 | 1014.0 |
| 20260507083333 | 70 | 180 | 8.7 | 0.0 | 0.00 | 0.00 | 0.00 | 50 | 1014.0 |
| 20260507081832 | 70 | 180 | 9.6 | 0.0 | 0.00 | 0.00 | 0.00 | 46 | 1013.0 |
| 20260507080333 | 70 | 180 | 9.6 | 0.0 | 0.00 | 0.00 | 0.00 | 46 | 1013.0 |
| 20260507074833 | 68 | 180 | 8.7 | 0.0 | 0.00 | 0.00 | 0.00 | 53 | 1013.0 |
| 20260507073332 | 68 | 180 | 8.7 | 0.0 | 0.00 | 0.00 | 0.00 | 53 | 1013.0 |
| 20260507071832 | 68 | 210 | 7.0 | 0.0 | 0.00 | 0.00 | 0.00 | 53 | 1013.0 |
| 20260507070332 | 68 | 210 | 7.0 | 0.0 | 0.00 | 0.00 | 0.00 | 53 | 1013.0 |
| 20260507064832 | 68 | 200 | 7.0 | 0.0 | 0.00 | 0.00 | 0.00 | 53 | 1013.0 |
| 20260507063332 | 68 | 200 | 7.0 | 0.0 | 0.00 | 0.00 | 0.00 | 53 | 1013.0 |
| 20260507061842 | 68 | 180 | 6.1 | 0.0 | 0.00 | 0.00 | 0.00 | 49 | 1013.0 |
| 20260507060332 | 68 | 180 | 6.1 | 0.0 | 0.00 | 0.00 | 0.00 | 49 | 1013.0 |
| 20260507054832 | 66 | 170 | 5.2 | 0.0 | 0.00 | 0.00 | 0.00 | 52 | 1013.0 |
| 20260507053340 | 66 | 170 | 5.2 | 0.0 | 0.00 | 0.00 | 0.00 | 52 | 1013.0 |
| 20260507051833 | 64 | 170 | 4.3 | 0.0 | 0.00 | 0.00 | 0.00 | 56 | 1012.0 |
| 20260507050332 | 64 | 170 | 4.3 | 0.0 | 0.00 | 0.00 | 0.00 | 56 | 1012.0 |
| 20260507044829 | 61 | 140 | 5.2 | 0.0 | 0.00 | 0.00 | 0.00 | 63 | 1012.0 |
| 20260507043332 | 61 | 140 | 5.2 | 0.0 | 0.00 | 0.00 | 0.00 | 63 | 1012.0 |
| 20260507041832 | 57 | 150 | 2.6 | 0.0 | 0.00 | 0.00 | 0.00 | 67 | 1012.0 |
| 20260507040332 | 57 | 150 | 2.6 | 0.0 | 0.00 | 0.00 | 0.00 | 67 | 1012.0 |
| 20260507034829 | 57 | 210 | 4.3 | 0.0 | 0.00 | 0.00 | 0.00 | 67 | 1012.0 |
| 20260507033331 | 57 | 210 | 4.3 | 0.0 | 0.00 | 0.00 | 0.00 | 67 | 1012.0 |
| 20260507031832 | 55 | 270 | 6.1 | 0.0 | 0.00 | 0.00 | 0.00 | 72 | 1012.0 |
| 20260507030332 | 55 | 270 | 6.1 | 0.0 | 0.00 | 0.00 | 0.00 | 72 | 1012.0 |
| 20260507023332 | 52 | 100 | 1.7 | 0.0 | 0.00 | 0.00 | 0.00 | 77 | 1012.0 |
| 20260507021832 | 52 | 70 | 2.6 | 0.0 | 0.00 | 0.00 | 0.00 | 77 | 1011.0 |
| 20260507020332 | 52 | 70 | 2.6 | 0.0 | 0.00 | 0.00 | 0.00 | 77 | 1011.0 |
| 20260507014832 | 54 | 80 | 2.6 | 0.0 | 0.00 | 0.00 | 0.00 | 72 | 1011.0 |
| 20260507013332 | 54 | 80 | 2.6 | 0.0 | 0.00 | 0.00 | 0.00 | 72 | 1011.0 |